• en France
  • Liste des pays
  • À 7 jours
  • Température de l'eau
  • Carte satellitaire
  • Carte météo
  • Widgets météo
  • user-avatar
    Se connecter

    Météo par heure à Arauca

    Ce jour, 18 Février, Dimanche

    Heure Température Précipitation Vent Pression Humidité
    00:00 +29°C° 0 mm 1 m/s 748 mmHg 53%
    01:00 +29°C° 0 mm 2 m/s 748 mmHg 55%
    02:00 +28°C° 0 mm 2 m/s 748 mmHg 56%
    03:00 +28°C° 0 mm 2 m/s 748 mmHg 57%
    04:00 +28°C° 0 mm 2 m/s 748 mmHg 58%
    05:00 +28°C° 0 mm 2 m/s 748 mmHg 58%
    06:00 +28°C° 0 mm 2 m/s 749 mmHg 58%
    07:00 +27°C° 0 mm 2 m/s 749 mmHg 59%
    08:00 +29°C° 0 mm 3 m/s 750 mmHg 55%
    09:00 +30°C° 0 mm 3 m/s 750 mmHg 51%
    10:00 +32°C° 0 mm 4 m/s 751 mmHg 47%
    11:00 +33°C° 0 mm 3 m/s 750 mmHg 45%
    12:00 +34°C° 0 mm 3 m/s 749 mmHg 42%
    13:00 +35°C° 0 mm 3 m/s 748 mmHg 40%
    14:00 +35°C° 0 mm 3 m/s 747 mmHg 39%
    15:00 +35°C° 0 mm 3 m/s 746 mmHg 38%
    16:00 +36°C° 0 mm 3 m/s 745 mmHg 37%
    17:00 +34°C° 0 mm 2 m/s 745 mmHg 40%
    18:00 +32°C° 0 mm 2 m/s 745 mmHg 44%
    19:00 +30°C° 0 mm 1 m/s 746 mmHg 48%
    20:00 +29°C° 0 mm 1 m/s 746 mmHg 50%
    21:00 +29°C° 0 mm 1 m/s 747 mmHg 52%
    22:00 +28°C° 0 mm 1 m/s 747 mmHg 54%
    23:00 +28°C° 0 mm 2 m/s 747 mmHg 55%

    Demain, 19 Février, Lundi

    Heure Température Précipitation Vent Pression Humidité
    00:00 +27°C° 0 mm 2 m/s 747 mmHg 57%
    01:00 +27°C° 0 mm 2 m/s 747 mmHg 58%
    02:00 +27°C° 0 mm 2 m/s 747 mmHg 58%
    03:00 +26°C° 0 mm 2 m/s 747 mmHg 57%
    04:00 +26°C° 0 mm 3 m/s 747 mmHg 57%
    05:00 +26°C° 0 mm 3 m/s 748 mmHg 57%
    06:00 +27°C° 0 mm 4 m/s 748 mmHg 58%
    07:00 +27°C° 0 mm 4 m/s 749 mmHg 58%
    08:00 +29°C° 0 mm 4 m/s 749 mmHg 53%
    09:00 +30°C° 0 mm 4 m/s 750 mmHg 47%
    10:00 +33°C° 0 mm 5 m/s 750 mmHg 42%
    11:00 +35°C° 0 mm 5 m/s 749 mmHg 37%
    12:00 +36°C° 0 mm 4 m/s 748 mmHg 33%
    13:00 +37°C° 0 mm 4 m/s 747 mmHg 29%
    14:00 +37°C° 0 mm 4 m/s 746 mmHg 27%
    15:00 +38°C° 0 mm 4 m/s 746 mmHg 25%
    16:00 +38°C° 0 mm 4 m/s 745 mmHg 23%
    17:00 +36°C° 0 mm 3 m/s 745 mmHg 25%
    18:00 +34°C° 0 mm 2 m/s 746 mmHg 27%
    19:00 +30°C° 0 mm 2 m/s 746 mmHg 29%
    20:00 +30°C° 0 mm 2 m/s 747 mmHg 30%
    21:00 +29°C° 0 mm 2 m/s 747 mmHg 31%
    22:00 +28°C° 0 mm 2 m/s 748 mmHg 33%
    23:00 +28°C° 0 mm 2 m/s 747 mmHg 34%

    Après-demain, 20 Février, Mardi

    Heure Température Précipitation Vent Pression Humidité
    00:00 +27°C° 0 mm 2 m/s 747 mmHg 36%
    01:00 +27°C° 0 mm 2 m/s 747 mmHg 38%
    02:00 +27°C° 0 mm 2 m/s 747 mmHg 41%
    03:00 +26°C° 0 mm 2 m/s 748 mmHg 45%
    04:00 +26°C° 0 mm 2 m/s 748 mmHg 49%
    05:00 +26°C° 0 mm 3 m/s 748 mmHg 52%
    06:00 +26°C° 0 mm 3 m/s 749 mmHg 55%
    07:00 +26°C° 0 mm 3 m/s 750 mmHg 58%
    08:00 +29°C° 0 mm 4 m/s 750 mmHg 52%
    09:00 +32°C° 0 mm 4 m/s 750 mmHg 45%
    10:00 +34°C° 0 mm 4 m/s 751 mmHg 39%
    11:00 +35°C° 0 mm 4 m/s 750 mmHg 36%
    12:00 +37°C° 0 mm 4 m/s 748 mmHg 32%
    13:00 +38°C° 0 mm 4 m/s 747 mmHg 29%
    14:00 +38°C° 0 mm 4 m/s 747 mmHg 27%
    15:00 +38°C° 0 mm 4 m/s 746 mmHg 26%
    16:00 +38°C° 0 mm 4 m/s 745 mmHg 25%
    17:00 +36°C° 0 mm 3 m/s 746 mmHg 27%
    18:00 +34°C° 0 mm 2 m/s 747 mmHg 29%
    19:00 +31°C° 0 mm 2 m/s 747 mmHg 32%
    20:00 +30°C° 0 mm 2 m/s 748 mmHg 33%
    21:00 +30°C° 0 mm 2 m/s 748 mmHg 34%
    22:00 +29°C° 0 mm 2 m/s 749 mmHg 35%
    23:00 +28°C° 0 mm 2 m/s 748 mmHg 37%

    21 Février, Mercredi

    Heure Température Précipitation Vent Pression Humidité
    00:00 +28°C° 0 mm 2 m/s 748 mmHg 39%
    01:00 +27°C° 0 mm 2 m/s 748 mmHg 40%
    02:00 +27°C° 0 mm 2 m/s 748 mmHg 43%
    03:00 +26°C° 0 mm 2 m/s 748 mmHg 47%
    04:00 +26°C° 0 mm 2 m/s 748 mmHg 50%
    05:00 +26°C° 0 mm 2 m/s 749 mmHg 51%
    06:00 +26°C° 0 mm 3 m/s 750 mmHg 53%
    07:00 +26°C° 0 mm 3 m/s 750 mmHg 54%
    08:00 +29°C° 0 mm 3 m/s 751 mmHg 49%
    09:00 +32°C° 0 mm 4 m/s 751 mmHg 44%
    10:00 +34°C° 0 mm 4 m/s 751 mmHg 38%
    11:00 +35°C° 0 mm 4 m/s 750 mmHg 35%
    12:00 +36°C° 0 mm 4 m/s 749 mmHg 31%
    13:00 +38°C° 0 mm 4 m/s 748 mmHg 27%
    14:00 +38°C° 0 mm 4 m/s 747 mmHg 25%
    15:00 +38°C° 0 mm 4 m/s 746 mmHg 24%
    16:00 +38°C° 0 mm 4 m/s 746 mmHg 22%
    17:00 +36°C° 0 mm 3 m/s 746 mmHg 26%
    18:00 +34°C° 0 mm 2 m/s 747 mmHg 30%
    19:00 +31°C° 0 mm 2 m/s 747 mmHg 33%
    20:00 +31°C° 0 mm 2 m/s 747 mmHg 35%
    21:00 +30°C° 0 mm 2 m/s 748 mmHg 38%
    22:00 +30°C° 0 mm 2 m/s 748 mmHg 40%
    23:00 +29°C° 0 mm 2 m/s 748 mmHg 41%

    22 Février, Jeudi

    Heure Température Précipitation Vent Pression Humidité
    00:00 +28°C° 0 mm 2 m/s 748 mmHg 43%
    01:00 +27°C° 0 mm 2 m/s 748 mmHg 44%
    02:00 +27°C° 0 mm 2 m/s 748 mmHg 45%
    03:00 +26°C° 0 mm 2 m/s 748 mmHg 47%
    04:00 +26°C° 0 mm 2 m/s 748 mmHg 48%
    05:00 +26°C° 0 mm 2 m/s 749 mmHg 51%
    06:00 +26°C° 0 mm 3 m/s 750 mmHg 53%
    07:00 +26°C° 0 mm 3 m/s 750 mmHg 55%
    08:00 +28°C° 0 mm 3 m/s 750 mmHg 50%
    09:00 +32°C° 0 mm 4 m/s 751 mmHg 45%
    10:00 +34°C° 0 mm 4 m/s 751 mmHg 40%
    11:00 +35°C° 0 mm 4 m/s 750 mmHg 36%
    12:00 +37°C° 0 mm 4 m/s 749 mmHg 31%
    13:00 +38°C° 0 mm 4 m/s 748 mmHg 27%
    14:00 +38°C° 0 mm 3 m/s 747 mmHg 26%
    15:00 +38°C° 0 mm 3 m/s 746 mmHg 25%
    16:00 +38°C° 0 mm 3 m/s 745 mmHg 24%
    17:00 +36°C° 0 mm 3 m/s 746 mmHg 28%
    18:00 +34°C° 0 mm 2 m/s 746 mmHg 31%
    19:00 +31°C° 0 mm 2 m/s 746 mmHg 35%
    20:00 +31°C° 0 mm 2 m/s 747 mmHg 36%
    21:00 +31°C° 0 mm 2 m/s 747 mmHg 38%
    22:00 +30°C° 0 mm 2 m/s 747 mmHg 39%
    23:00 +30°C° 0 mm 2 m/s 747 mmHg 40%

    23 Février, Vendredi

    Heure Température Précipitation Vent Pression Humidité
    00:00 +29°C° 0 mm 2 m/s 747 mmHg 41%
    01:00 +29°C° 0 mm 2 m/s 747 mmHg 42%
    02:00 +29°C° 0 mm 2 m/s 747 mmHg 44%
    03:00 +28°C° 0 mm 2 m/s 747 mmHg 46%
    04:00 +28°C° 0 mm 2 m/s 747 mmHg 47%
    05:00 +28°C° 0 mm 2 m/s 748 mmHg 49%
    06:00 +28°C° 0 mm 3 m/s 748 mmHg 50%
    07:00 +27°C° 0 mm 3 m/s 749 mmHg 51%
    08:00 +29°C° 0 mm 3 m/s 749 mmHg 48%
    09:00 +30°C° 0 mm 3 m/s 749 mmHg 45%
    10:00 +31°C° 0 mm 3 m/s 749 mmHg 42%
    11:00 +34°C° 0 mm 3 m/s 749 mmHg 38%
    12:00 +36°C° 0 mm 3 m/s 748 mmHg 33%
    13:00 +38°C° 0 mm 3 m/s 747 mmHg 28%
    14:00 +38°C° 0 mm 3 m/s 746 mmHg 27%
    15:00 +38°C° 0 mm 3 m/s 745 mmHg 27%
    16:00 +38°C° 0 mm 3 m/s 744 mmHg 26%
    17:00 +36°C° 0 mm 2 m/s 745 mmHg 29%
    18:00 +34°C° 0 mm 2 m/s 745 mmHg 32%
    19:00 +31°C° 0 mm 1 m/s 745 mmHg 35%
    20:00 +31°C° 0 mm 1 m/s 746 mmHg 36%
    21:00 +30°C° 0 mm 1 m/s 746 mmHg 36%
    22:00 +30°C° 0 mm 1 m/s 747 mmHg 37%
    23:00 +29°C° 0 mm 1 m/s 747 mmHg 39%
    Voir plus